Regional Weather Roundup
Issued by NWS

Home | Current Version | Previous Version | Text Only | Print | Product List | Glossary On
Versions: 1 2 3 4 5 6 7 8 9 10 11 12 13 14 15 16 17 18 19 20 21 22 23 24 25 26 27 28 29 30 31 32 33 34 35 36 37 38 39 40 41 42 43 44 45 46 47 48 49 50
000
ASCA44 KEWX 271720
RWRMX

LATIN AMERICA AND CARIBBEAN REGIONAL WEATHER ROUNDUP
NATIONAL WEATHER SERVICE AUSTIN/SAN ANTONIO TX
1200 PM CDT THU JUL 27 2017

NOTE: "FAIR" INDICATED FEW OR NO CLOUDS BELOW 12,000 FEET WITH NO
SIGNIFICANT WEATHER AND/OR OBSTRUCTIONS TO VISIBILITY.

BAJA CALIFORNIA

CITY           SKY/WX    TMP DP  RH WIND       PRES   REMARKS
LORETO         PTSUNNY   86  77  74 CALM      29.90S HX  97
LA PAZ         PTSUNNY   91  57  31 SE6       29.91F HX  90
MEXICALI       SUNNY     97  55  24 SW6       29.84F HX  95
S.J. DEL CABO  MOSUNNY   86  70  58 CALM      29.93F HX  90
TIJUANA        MOSUNNY   75  64  69 CALM      29.98F

NORTHWESTERN MEXICO

CITY           SKY/WX    TMP DP  RH WIND       PRES   REMARKS
CULIACAN       CLOUDY    82  75  78 NE5       29.90F
DURANGO        CLOUDY    68  55  64 E2        30.30S
GUAYMAS        MOSUNNY   90  79  70 CALM      29.85F HX 105
HERMOSILLO     MOSUNNY   91  73  55 CALM      29.94F HX 100
CD. JUAREZ     MOSUNNY   84  63  48 CALM      30.14R
LOS MOCHIS     PTSUNNY  N/A N/A N/A S8        29.92F
OBREGON        MOSUNNY   88  72  58 E2        29.90S HX  94

NORTHEASTERN MEXICO

CITY           SKY/WX    TMP DP  RH WIND       PRES   REMARKS
CHIHUAHUA      MOSUNNY   79  57  47 CALM      30.20S
MATAMOROS      MOSUNNY   91  73  55 S12       30.03F HX 100
MONCLOVA       MOSUNNY   86  63  45 NE6       30.05
MONTERREY      MOSUNNY   86  63  45 SE10      30.03
NUEVO LAREDO   SUNNY     91  68  46 S12       30.01F HX  95
PIEDRAS NEGRAS   N/A    N/A N/A N/A MISG        N/A
REYNOSA        MOSUNNY   90  64  43 E9G21     30.01F HX  91
SALTILLO       MOSUNNY   84  66  54 CALM      30.25S
TORREON        PTSUNNY   84  57  39 NE5       30.13F
CD. VICTORIA   SUNNY     88  63  42 S17       30.03F

WESTERN MEXICO

CITY           SKY/WX    TMP DP  RH WIND       PRES   REMARKS
AGUASCALIENTES PTSUNNY   68  54  60 E2        30.35F
COLIMA         MOSUNNY   81  70  69 CALM      30.08S
DEL BAJIO      MOSUNNY   70  55  60 S6        30.37F
GUADALAJARA    MOSUNNY   73  59  60 CALM      30.25F
MANZANILLO     PTSUNNY   91  79  66 S9        29.89F HX 107
MAZATLAN       CLOUDY    79  75  89 E5        29.90S
P. VALLARTA    CLOUDY    82  75  78 CALM      29.90S
ZACATECAS      CLOUDY    68  52  56 SW7       30.35F

CENTRAL MEXICO

CITY           SKY/WX    TMP DP  RH WIND       PRES   REMARKS
CUERNAVACA       N/A    N/A N/A N/A MISG        N/A
MEXICO CITY    MOSUNNY   68  52  56 CALM      30.38F HAZE
MORELIA        MOSUNNY   70  59  68 W5        30.30F
POZA RICA      PTSUNNY   84  75  74 SW5       30.08F HX  92
PUEBLA         MOSUNNY  N/A N/A N/A SW5       30.39F
QUERETARO      MOSUNNY   68  57  68 SE5       30.37F
S. LUIS POTOSI PTSUNNY   68  54  60 CALM      30.33F
TAMPICO        PTSUNNY   84  72  65 CALM      30.04S
TOLUCA         PTSUNNY   64  50  59 CALM      30.44F

SOUTHERN MEXICO

CITY           SKY/WX    TMP DP  RH WIND       PRES   REMARKS
ACAPULCO       MOSUNNY   88  73  62 W13       29.87F HX  96
B. DE HUATULCO   N/A    N/A N/A N/A MISG        N/A
OAXACA         PTSUNNY   73  54  49 NW6       30.26F
P. ESCONDIDO   PTSUNNY   86  77  74 SW5       29.96F HX  97
VERACRUZ       CLOUDY    77  75  94 CALM      30.02F
ZIHUATANEJO    PTSUNNY   91  77  62 SW3       29.91S HX 105

YUCATAN PENINSULA

CITY           SKY/WX    TMP DP  RH WIND       PRES   REMARKS
CAMPECHE       MOSUNNY   88  77  70 E8        29.96F HX 100
CANCUN         MOSUNNY   90  73  58 E6        30.00S HX  98
CHETUMAL       MOSUNNY   91  77  62 E15       29.97S HX 105
CD. DEL CARMEN PTSUNNY  N/A N/A N/A E12       29.98F
COZUMEL        PTSUNNY   90  79  70 E9        29.98R HX 105
MERIDA         PTSUNNY   88  75  66 E6        30.00F HX  97
MINATITLAN     MOSUNNY   84  79  84 N12       29.97R HX  96
TAPACHULA      PTSUNNY   86  75  70 NW6       29.83F HX  95
TUX. GUTIERREZ MOSUNNY   84  75  74 CALM      29.99F HX  92
VILLAHERMOSA   CLOUDY    88  75  66 E8        29.99S HX  97

CENTRAL AMERICA

CITY           SKY/WX    TMP DP  RH WIND       PRES   REMARKS
BELIZE CITY    MOSUNNY   88  79  74 NE9       29.96F HX 102
MANAGUA        MOSUNNY   86  73  66 E14       29.83F HX  93

CARIBBEAN

CITY           SKY/WX    TMP DP  RH WIND       PRES   REMARKS
ARUBA          MOSUNNY   90  75  62 E18       29.86S HX 100
CURACAO        MOSUNNY   88  77  70 E16       29.89F HX 100
KINGSTON       MOSUNNY   90  77  66 SE21      29.92S HX 102
NASSAU         MOSUNNY   90  79  70 SE8       30.03S HX 105
SAN JUAN       MOSUNNY   84  73  70 CALM      29.97F THUNDER HX  91
SANTO DOMINGO  MOSUNNY   88  77  70 SE7       29.94S HX 100
ST. CROIX      MOSUNNY   90  75  62 SE10      29.98  HX 100
ST. KITTS      MOSUNNY   88  77  70 E12       29.97S HX 100
ST. MAARTEN    MOSUNNY   86  77  74 SE12      29.97S HX  97
ST. THOMAS     SUNNY     88  77  70 SE12      29.96  HX 100

$$





USA.gov is the U.S. government's official web portal to all federal, state and local government web resources and services.